RYR91AC LICT-LIBD

Flight info

Callsign RYR91AC
Flight time 0h 52m
Altitude 34000
Route PAL DCT ROSAS DCT AMANO DCT NAXES DCT VARAL DCT POLIT DCT KUTID DCT VEGAN DCT BUMOK
Aircraft B738/M-SDE2E3FGHIRWXY/LB1

Departure

Time 2026-05-04 10:42
Airport Vincenzo Florio Airport Trapani-Birgi (LICT)

Arrival

Time 2026-05-04 11:34
Airport Bari Karol Wojtyła International Airport (LIBD)
Time Latitude Longitude Altitude Speed Heading
2026-05-04 10:25 37.90202 12.49719 28 ft 0 kts 280°
2026-05-04 10:36 37.90208 12.49711 28 ft 3 kts 326°
2026-05-04 10:36 37.90213 12.49709 28 ft 2 kts 345°
2026-05-04 10:36 37.90236 12.49724 28 ft 4 kts 29°
2026-05-04 10:36 37.90264 12.49731 29 ft 5 kts 322°
2026-05-04 10:37 37.90290 12.49699 30 ft 6 kts 317°
2026-05-04 10:37 37.90330 12.49643 30 ft 11 kts 307°
2026-05-04 10:37 37.90378 12.49562 30 ft 11 kts 307°
2026-05-04 10:37 37.90448 12.49554 31 ft 11 kts 13°
2026-05-04 10:39 37.90982 12.49053 27 ft 27 kts 308°
2026-05-04 10:39 37.91109 12.48845 30 ft 32 kts 308°
2026-05-04 10:39 37.91256 12.48609 27 ft 36 kts 308°
2026-05-04 10:40 37.91419 12.48347 24 ft 41 kts 307°
2026-05-04 10:40 37.91602 12.48048 16 ft 44 kts 308°
2026-05-04 10:40 37.91776 12.47767 16 ft 32 kts 308°
2026-05-04 10:40 37.91868 12.47626 18 ft 8 kts 248°
2026-05-04 10:41 37.91842 12.47651 18 ft 6 kts 120°
2026-05-04 10:41 37.91811 12.47708 17 ft 15 kts 128°
2026-05-04 10:41 37.91591 12.48066 16 ft 89 kts 128°
2026-05-04 10:41 37.91072 12.48897 54 ft 147 kts 131°
2026-05-04 10:42 37.90436 12.49891 840 ft 140 kts 132°
2026-05-04 10:42 37.89819 12.50907 1575 ft 151 kts 132°
2026-05-04 10:42 37.89142 12.52021 2158 ft 173 kts 131°
2026-05-04 10:42 37.88346 12.53329 2469 ft 206 kts 131°
2026-05-04 10:43 37.87422 12.54840 2918 ft 224 kts 128°
2026-05-04 10:44 37.94989 12.66175 8899 ft 279 kts 36°
2026-05-04 10:45 37.96547 12.67662 9824 ft 282 kts 36°
2026-05-04 10:45 37.98128 12.69175 10577 ft 289 kts 35°
2026-05-04 10:45 37.99798 12.70770 10846 ft 314 kts 35°
2026-05-04 10:45 38.01609 12.72502 11098 ft 337 kts 36°
2026-05-04 10:46 38.03516 12.74333 11622 ft 349 kts 36°
2026-05-04 10:46 38.05460 12.76202 12420 ft 351 kts 36°
2026-05-04 10:46 38.07414 12.78084 13191 ft 355 kts 36°
2026-05-04 10:46 38.09400 12.79997 13930 ft 360 kts 36°
2026-05-04 10:47 38.11382 12.81908 14586 ft 364 kts 35°
2026-05-04 10:47 38.13409 12.83862 15283 ft 368 kts 35°
2026-05-04 10:47 38.15451 12.85832 15959 ft 371 kts 35°
2026-05-04 10:47 38.17516 12.87826 16624 ft 375 kts 35°
2026-05-04 10:49 38.32483 13.02319 20788 ft 398 kts 34°
2026-05-04 10:49 38.34697 13.04468 21325 ft 402 kts 34°
2026-05-04 10:50 38.36930 13.06640 21860 ft 405 kts 34°
2026-05-04 10:51 38.52973 13.22286 25154 ft 423 kts 33°
2026-05-04 10:52 38.55290 13.24553 25550 ft 426 kts 33°
2026-05-04 10:52 38.57645 13.26859 25938 ft 428 kts 33°
2026-05-04 10:52 38.60014 13.29181 26316 ft 430 kts 33°
2026-05-04 10:54 38.76912 13.45805 28820 ft 446 kts 32°
2026-05-04 10:54 38.79370 13.48232 29196 ft 447 kts 32°
2026-05-04 10:56 38.98169 13.59772 32120 ft 424 kts 14°
2026-05-04 10:56 39.00949 13.61014 32519 ft 423 kts 14°
2026-05-04 10:56 39.03723 13.62261 32893 ft 421 kts 14°
2026-05-04 10:57 39.06483 13.63505 33246 ft 421 kts 14°
2026-05-04 10:57 39.09241 13.64751 33626 ft 419 kts 14°
2026-05-04 10:57 39.11994 13.65995 33996 ft 418 kts 14°
2026-05-04 10:57 39.14736 13.67234 34220 ft 420 kts 14°
2026-05-04 10:58 39.17508 13.68485 34196 ft 423 kts 14°
2026-05-04 10:58 39.23008 13.70977 34186 ft 419 kts 14°
2026-05-04 10:59 39.28468 13.73455 34220 ft 415 kts 14°
2026-05-04 10:59 39.33921 13.75930 34201 ft 416 kts 14°
2026-05-04 11:00 39.39371 13.78469 34199 ft 419 kts 18°
2026-05-04 11:01 39.54606 13.97169 34204 ft 439 kts 41°
2026-05-04 11:02 39.56667 14.00097 34203 ft 439 kts 41°
2026-05-04 11:05 39.85762 14.45629 32822 ft 436 kts 44°
2026-05-04 11:06 39.87661 14.48718 32392 ft 438 kts 44°
2026-05-04 11:06 39.89566 14.51819 31958 ft 439 kts 44°
2026-05-04 11:06 39.91475 14.54929 31527 ft 440 kts 45°
2026-05-04 11:06 39.93383 14.58043 31102 ft 440 kts 45°
2026-05-04 11:08 40.06667 14.79815 27909 ft 438 kts 46°
2026-05-04 11:10 40.20023 15.01849 24699 ft 447 kts 47°
2026-05-04 11:12 40.33301 15.23939 21332 ft 417 kts 49°
2026-05-04 11:12 40.35071 15.26896 20894 ft 408 kts 49°
2026-05-04 11:12 40.36802 15.29787 20450 ft 399 kts 49°
2026-05-04 11:12 40.38495 15.32618 20043 ft 391 kts 49°
2026-05-04 11:13 40.40164 15.35408 19623 ft 386 kts 49°
2026-05-04 11:13 40.41804 15.38151 19203 ft 380 kts 49°
2026-05-04 11:13 40.43401 15.40826 18827 ft 376 kts 49°
2026-05-04 11:13 40.45020 15.43539 18408 ft 378 kts 49°
2026-05-04 11:14 40.46644 15.46262 17961 ft 379 kts 49°
2026-05-04 11:14 40.48259 15.48971 17532 ft 374 kts 49°
2026-05-04 11:14 40.49850 15.51644 17124 ft 370 kts 49°
2026-05-04 11:16 40.60587 15.69773 14393 ft 350 kts 50°
2026-05-04 11:16 40.62070 15.72285 14006 ft 344 kts 50°
2026-05-04 11:16 40.63524 15.74750 13600 ft 338 kts 50°
2026-05-04 11:17 40.64950 15.77169 13232 ft 332 kts 50°
2026-05-04 11:17 40.66355 15.79555 12869 ft 326 kts 50°
2026-05-04 11:19 40.75656 15.95361 10488 ft 303 kts 50°
2026-05-04 11:19 40.76926 15.97535 10352 ft 294 kts 50°
2026-05-04 11:19 40.78160 15.99651 10240 ft 287 kts 50°
2026-05-04 11:19 40.79369 16.01721 10026 ft 283 kts 50°
2026-05-04 11:20 40.80566 16.03776 9705 ft 281 kts 50°
2026-05-04 11:20 40.81734 16.05776 9426 ft 277 kts 50°
2026-05-04 11:20 40.82910 16.07791 9137 ft 277 kts 50°
2026-05-04 11:20 40.84075 16.09799 8835 ft 274 kts 50°
2026-05-04 11:22 40.90000 16.19962 7400 ft 264 kts 50°
2026-05-04 11:26 40.92138 16.23641 6869 ft 267 kts 50°
2026-05-04 11:27 41.00039 16.37282 5085 ft 258 kts 51°
2026-05-04 11:28 41.01105 16.39131 5018 ft 247 kts 51°
2026-05-04 11:28 41.02128 16.40899 4854 ft 236 kts 51°
2026-05-04 11:28 41.03103 16.42586 4795 ft 231 kts 50°
2026-05-04 11:28 41.04067 16.44312 4436 ft 238 kts 51°
2026-05-04 11:29 41.05052 16.46030 4216 ft 232 kts 50°
2026-05-04 11:29 41.05893 16.47814 3990 ft 225 kts 61°
2026-05-04 11:29 41.06478 16.49712 3735 ft 218 kts 67°
2026-05-04 11:29 41.06984 16.51577 3518 ft 212 kts 68°
2026-05-04 11:31 41.10193 16.63038 1987 ft 164 kts 65°
2026-05-04 11:33 41.12762 16.72176 489 ft 143 kts 70°
2026-05-04 11:33 41.13099 16.73403 311 ft 142 kts 69°
2026-05-04 11:33 41.13450 16.74648 150 ft 142 kts 69°
2026-05-04 11:34 41.13746 16.75682 139 ft 90 kts 69°
2026-05-04 11:34 41.13898 16.76224 128 ft 49 kts 70°
2026-05-04 11:34 41.13992 16.76562 121 ft 28 kts 70°
2026-05-04 11:34 41.13967 16.76725 121 ft 15 kts 114°
2026-05-04 11:35 41.13913 16.76821 124 ft 10 kts 154°
2026-05-04 11:35 41.13859 16.76776 125 ft 10 kts 233°
2026-05-04 11:35 41.13793 16.76769 131 ft 10 kts 190°
2026-05-04 11:35 41.13754 16.76700 135 ft 10 kts 245°
2026-05-04 11:36 41.13730 16.76615 135 ft 10 kts 249°
2026-05-04 11:36 41.13691 16.76546 135 ft 10 kts 208°
2026-05-04 11:36 41.13642 16.76481 135 ft 11 kts 252°
2026-05-04 11:36 41.13615 16.76385 135 ft 11 kts 248°
2026-05-04 11:37 41.13565 16.76389 135 ft 8 kts 159°
2026-05-04 11:37 41.13539 16.76402 135 ft 1 kts 159°